This is the latest recevied weather packets stored in our database for station/object SQ9PDE-13. If no packets are shown the sender has not sent any weather packets the latest 10 day(s).
| Time | Temp. | Humidity | Pressure | Rain* | Wind** | Luminosity | Snow |
|---|---|---|---|---|---|---|---|
| 1778075869 | 24.44° C | 42% | 1004.4 hPa | - | - | - | - |
| 1778075568 | 24.44° C | 43% | 1004.4 hPa | - | - | - | - |
| 1778075268 | 24.44° C | 43% | 1004.4 hPa | - | - | - | - |
| 1778074967 | 24.44° C | 43% | 1004.4 hPa | - | - | - | - |
| 1778074667 | 23.89° C | 43% | 1004.6 hPa | - | - | - | - |
| 1778074366 | 24.44° C | 44% | 1004.6 hPa | - | - | - | - |
| 1778074066 | 24.44° C | 44% | 1004.6 hPa | - | - | - | - |
| 1778073765 | 25° C | 45% | 1004.4 hPa | - | - | - | - |
| 1778073465 | 23.89° C | 46% | 1004.8 hPa | - | - | - | - |
| 1778073164 | 25° C | 46% | 1004.5 hPa | - | - | - | - |
| 1778072863 | 23.89° C | 46% | 1005 hPa | - | - | - | - |
| 1778072563 | 23.89° C | 46% | 1004.9 hPa | - | - | - | - |
| 1778072262 | 23.33° C | 45% | 1004.8 hPa | - | - | - | - |
| 1778071962 | 23.89° C | 44% | 1004.8 hPa | - | - | - | - |
| 1778071704 | 23.89° C | 45% | 1004.9 hPa | - | - | - | - |
| 1778071661 | 23.89° C | 45% | 1004.9 hPa | - | - | - | - |
| 1778071361 | 23.33° C | 44% | 1004.9 hPa | - | - | - | - |
| 1778071060 | 24.44° C | 44% | 1004.8 hPa | - | - | - | - |
| 1778070760 | 23.89° C | 45% | 1004.9 hPa | - | - | - | - |
| 1778070459 | 23.89° C | 45% | 1004.9 hPa | - | - | - | - |
| 1778070159 | 23.89° C | 45% | 1004.9 hPa | - | - | - | - |
| 1778069933 | 23.89° C | 44% | 1004.9 hPa | - | - | - | - |
| 1778069858 | 23.89° C | 44% | 1004.9 hPa | - | - | - | - |
| 1778069558 | 23.89° C | 45% | 1004.9 hPa | - | - | - | - |
| 1778069257 | 24.44° C | 43% | 1004.8 hPa | - | - | - | - |
* Rain since midnight (hover to see other rain measurements)
** Current wind speed in m/s (hover to see current wind gust speed)